GFSNE_700_spd_201.txt.gz
Wind_Speed
17 19 20 20 17 14 13 13 12 11 12 11 10 9 8 7 5 4 3 1 3 4 6 7 8 9 10 11 10 10 10 10 9 9 9 11 13 17
17 18 19 15 14 11 12 12 12 12 12 11 10 9 8 7 6 4 4 4 4 5 6 8 9 9 10 11 11 10 10 10 10 10 10 8 8 11
18 18 16 14 13 11 13 13 12 12 11 9 9 9 8 7 7 6 6 6 6 6 7 7 9 10 11 12 11 11 10 9 9 9 9 9 9 8
20 17 16 15 13 13 14 13 12 11 10 9 9 8 7 6 5 5 5 6 6 5 5 7 9 11 11 11 10 9 9 9 8 8 8 8 8 8
19 17 17 16 15 15 15 14 13 12 10 10 9 8 7 6 6 5 6 7 6 6 6 6 8 9 10 10 9 8 7 7 7 8 8 8 8 8
18 19 17 18 17 17 16 15 14 12 12 11 10 9 8 7 6 6 6 6 7 7 7 8 7 9 9 9 9 8 7 6 7 8 8 8 9 9
21 19 20 19 18 19 18 17 16 14 13 12 11 9 7 6 5 5 5 6 7 7 8 9 9 9 9 9 8 9 9 8 8 8 8 7 8 8
24 24 21 21 21 21 20 19 17 16 15 14 12 10 8 7 5 5 5 6 7 8 9 10 10 10 11 11 10 9 10 10 11 10 9 10 10 10
22 23 24 23 23 23 22 21 20 19 18 16 15 13 11 9 7 6 6 7 8 9 10 11 12 12 12 12 12 12 12 12 12 13 13 12 12 12
24 26 25 25 25 25 24 23 22 22 20 19 18 16 13 11 10 9 9 9 11 12 13 14 14 15 15 14 13 13 14 14 14 14 14 15 15 15
28 27 25 26 25 25 25 25 24 23 22 21 20 18 16 14 13 12 12 12 14 14 15 17 17 17 17 17 17 17 16 17 17 17 17 17 18 17
27 26 24 26 26 27 27 26 26 25 25 24 23 21 19 17 16 15 15 16 16 17 18 19 19 20 20 19 20 20 19 19 20 21 21 21 20 20
29 29 28 27 28 28 28 28 27 27 27 26 25 23 22 20 19 19 19 19 19 20 21 22 22 22 22 23 23 23 23 23 23 24 24 24 23 22
30 28 29 29 28 29 29 29 28 28 28 27 26 26 24 23 22 22 23 23 23 23 24 24 24 24 25 25 25 26 26 26 26 27 27 27 27 26
30 30 30 28 28 28 29 29 29 29 29 28 28 28 28 27 26 26 27 26 26 26 26 27 26 27 27 27 28 28 29 29 29 29 29 29 29 30
30 27 26 27 27 29 29 28 29 29 29 29 29 30 30 29 30 31 30 29 29 29 29 29 29 29 29 29 30 30 30 31 31 30 30 31 32 32
28 26 27 28 29 28 27 28 29 30 30 30 31 32 32 33 33 32 32 32 32 32 32 32 32 32 32 32 32 32 33 33 33 33 33 33 34 34
28 29 28 28 28 28 29 29 30 30 31 32 33 33 34 34 34 34 34 34 34 34 34 35 35 34 34 34 34 35 35 35 35 35 36 35 33 36
25 25 28 29 28 29 30 31 31 32 33 34 34 34 35 36 37 37 37 37 36 36 36 37 36 36 37 36 37 35 36 38 37 37 38 38 37 35
23 27 27 27 28 29 31 32 33 35 36 36 36 37 38 39 39 39 39 38 38 38 38 38 37 37 39 39 37 35 36 38 39 39 39 39 39 39
21 23 25 27 28 29 31 32 34 36 37 39 39 39 40 42 42 41 41 41 40 41 40 37 37 41 42 39 37 33 36 36 38 39 38 39 39 40
20 22 24 26 27 29 30 32 34 36 37 39 40 41 41 42 42 42 42 42 41 41 40 38 39 39 40 38 36 36 34 35 35 36 37 39 42 45
22 24 26 27 28 29 31 32 33 34 35 36 37 39 39 41 41 43 43 43 42 42 40 37 38 38 39 37 36 36 35 32 32 35 38 40 40 44

GFSNE_700_spd_207.txt.gz
Wind_Speed
27 22 23 19 18 21 23 27 27 24 20 15 17 16 13 12 11 10 10 10 9 9 9 8 8 7 7 7 8 10 10 10 10 10 10 10 10 10
23 26 22 18 19 21 23 24 23 20 18 15 15 15 14 13 12 11 12 10 10 11 10 10 9 8 7 8 9 10 11 11 11 10 10 10 10 10
27 25 19 18 20 21 21 20 19 19 19 14 15 15 14 13 13 13 14 12 13 12 12 9 8 8 8 9 9 10 10 9 10 10 10 10 10 10
27 22 21 20 19 19 19 17 17 19 20 15 15 14 15 14 16 15 14 13 13 11 10 8 9 9 9 8 8 8 9 9 9 9 9 10 9 10
27 25 22 21 20 20 19 17 19 20 17 18 17 17 16 17 16 15 13 11 10 11 11 10 10 10 9 9 8 8 8 8 8 9 9 9 9 9
30 27 26 24 23 21 20 21 21 21 20 21 20 20 18 18 17 15 14 12 11 11 12 12 12 11 10 9 8 8 8 8 8 9 9 9 9 9
37 32 30 28 25 25 25 23 25 24 23 23 23 22 20 19 16 15 14 13 12 12 12 12 11 11 9 10 9 9 9 9 9 9 10 10 10 10
33 38 35 29 27 25 24 26 26 26 25 24 24 23 21 19 17 16 15 13 12 11 10 9 9 9 9 10 10 10 10 10 10 11 12 12 12 12
24 40 37 32 30 28 27 26 27 26 26 26 27 25 22 20 19 17 16 14 13 11 10 9 9 9 8 10 10 11 12 13 13 13 14 14 14 14
22 28 35 37 32 29 28 29 29 30 29 29 29 25 23 21 21 19 18 17 15 13 12 10 11 10 11 9 11 12 13 14 15 16 16 17 17 18
15 18 24 34 30 26 29 29 27 28 29 29 25 25 25 24 23 22 20 19 17 16 14 13 13 13 14 13 12 14 14 15 16 17 18 19 20 20
18 21 21 23 23 27 29 30 31 31 31 30 27 28 28 27 27 25 23 22 21 19 17 17 16 17 17 17 17 15 17 17 17 17 19 20 22 23
23 22 25 26 28 29 30 31 31 31 30 30 29 31 30 29 28 27 26 25 23 22 20 20 20 20 21 21 21 21 21 19 20 20 20 22 22 23
22 24 26 29 30 32 34 33 29 31 31 30 31 32 30 29 29 28 27 27 25 24 24 24 24 23 23 24 24 24 24 24 24 24 24 23 23 24
23 26 28 30 31 33 34 29 31 30 30 31 31 30 30 30 30 30 30 29 28 27 27 27 27 27 26 26 27 27 27 27 25 26 26 26 27 27
21 24 27 28 29 30 26 28 30 30 30 30 30 31 30 30 30 31 31 31 31 30 30 30 30 30 29 29 29 30 30 30 29 29 29 29 29 29
20 23 25 26 28 29 32 31 26 28 28 28 29 29 29 30 30 31 32 33 33 33 32 32 32 32 32 32 32 31 32 33 33 33 31 31 32 33
20 22 23 24 24 26 29 27 28 28 30 28 29 30 30 30 31 32 32 33 33 34 35 35 34 34 35 34 33 34 34 34 35 35 34 34 34 35
21 21 21 21 21 24 27 29 29 27 26 29 30 30 30 30 31 32 33 33 33 34 35 36 37 36 37 35 36 34 34 36 37 36 37 37 36 35
21 20 19 19 19 21 22 23 24 27 28 28 28 29 30 31 31 32 33 33 34 35 36 37 37 37 37 36 39 40 37 37 36 38 39 39 38 36
18 16 15 17 19 20 21 23 25 26 26 27 28 29 30 31 32 32 33 34 35 36 38 38 37 38 39 40 41 38 40 38 38 39 39 39 38 39
18 17 18 19 20 22 24 25 26 26 25 25 27 28 29 31 31 32 34 35 36 36 38 38 39 41 43 42 41 40 39 42 39 38 38 38 39 38
20 22 25 25 24 24 24 24 24 25 26 26 26 27 28 30 31 33 35 36 37 39 39 40 40 42 45 45 43 41 40 39 40 42 38 35 36 35

GFSNE_700_spd_210.txt.gz
Wind_Speed
50 49 35 36 27 22 26 31 25 19 17 15 20 24 16 13 9 7 6 8 9 10 10 10 9 8 8 7 8 9 11 11 11 12 12 11 10 10
51 46 35 26 24 23 28 33 25 19 22 18 22 17 15 11 8 8 9 11 11 11 11 10 10 9 9 8 8 9 10 11 11 11 11 11 10 10
38 31 27 28 25 21 27 32 26 23 23 19 17 14 14 11 9 12 12 11 12 11 11 11 11 10 9 8 8 9 9 9 9 9 10 10 10 10
29 29 25 24 20 24 28 27 25 24 23 15 13 15 12 12 10 11 11 10 12 12 11 11 10 9 8 8 8 8 8 8 8 8 8 9 9 10
28 25 24 25 23 27 22 22 24 27 22 15 15 15 15 12 11 12 13 11 11 11 10 11 11 10 9 9 9 9 8 9 9 8 8 9 8 9
22 26 25 26 28 24 23 25 25 26 23 19 19 18 13 12 14 14 13 9 11 11 11 12 11 10 10 9 9 9 9 9 9 8 9 9 9 9
24 25 28 26 26 26 27 25 27 26 25 22 20 19 15 14 14 13 13 12 12 12 12 11 11 10 9 10 9 9 10 10 10 9 9 10 10 10
23 25 35 35 30 26 27 27 26 26 24 22 21 18 15 15 16 15 16 14 13 12 12 10 9 8 6 8 9 9 10 11 11 11 10 11 11 11
19 23 21 26 31 23 28 29 26 25 24 22 19 18 17 17 17 17 17 16 15 13 11 11 9 8 6 7 7 8 9 10 11 12 12 13 13 13
19 22 22 25 31 31 29 31 29 28 26 24 20 20 20 19 19 19 19 21 17 15 14 11 11 9 7 9 9 10 11 12 12 13 13 14 15 15
18 17 20 25 27 36 32 31 28 26 25 23 21 22 20 20 22 23 24 23 19 17 17 14 14 12 11 9 12 12 13 14 14 15 15 16 16 16
21 19 17 18 20 25 33 34 29 26 27 24 24 25 25 26 26 26 26 26 22 21 19 18 16 16 16 14 13 15 16 17 17 17 18 18 19 18
16 15 16 17 19 23 26 30 28 27 28 26 28 30 28 27 27 28 28 28 25 22 21 21 19 20 20 19 18 18 18 19 20 20 21 21 21 22
15 13 16 19 21 25 28 27 26 29 31 31 32 30 29 28 28 30 29 28 26 23 23 24 24 23 24 24 23 22 21 22 22 22 21 22 23 23
19 18 21 23 23 23 26 29 30 31 32 31 30 30 28 29 30 30 28 28 28 27 27 27 27 27 27 27 27 26 25 25 25 26 25 25 25 24
19 21 23 23 24 24 25 27 29 33 37 34 29 29 29 31 30 29 29 28 29 29 29 29 29 29 29 29 30 30 28 28 27 27 28 27 27 27
20 23 23 22 21 20 22 24 27 28 28 26 30 31 31 30 26 27 28 30 30 30 30 30 31 31 31 31 31 31 31 30 30 29 29 29 29 30
19 18 18 19 19 19 19 21 23 24 27 30 28 27 26 26 27 26 28 30 31 31 31 31 31 32 33 32 32 31 31 32 33 33 32 31 31 32
18 17 16 16 17 18 20 21 23 26 28 26 25 26 28 29 28 30 30 31 31 31 32 33 32 32 33 31 31 31 32 33 34 35 33 33 33 33
16 16 15 16 16 17 18 18 20 26 26 27 28 27 28 29 29 29 29 29 29 30 31 32 32 31 31 30 35 34 34 33 34 34 35 36 35 35
16 16 15 15 16 18 19 19 21 23 23 23 24 26 27 28 27 28 28 29 30 31 31 31 30 33 35 36 37 34 32 34 35 35 36 37 36 37
17 17 16 16 17 18 18 18 21 21 22 23 24 26 27 28 27 28 28 29 30 31 31 31 32 34 37 38 37 35 35 34 34 36 36 35 36 36
17 18 19 19 20 20 21 21 21 21 22 23 24 25 25 25 25 26 27 28 29 31 32 33 33 36 38 39 37 36 35 33 34 34 34 31 33 34

GFSNE_700_spd_216.txt.gz
Wind_Speed
48 45 42 50 47 53 53 48 45 44 37 33 35 33 22 24 26 22 21 21 20 20 15 13 14 12 10 7 8 9 8 9 10 11 12 12 11 11
39 43 44 49 51 48 49 40 35 30 30 28 27 26 21 21 21 22 24 24 23 19 16 15 15 12 10 8 9 8 7 8 9 10 10 9 8 8
34 38 38 39 43 47 40 38 33 28 26 31 30 22 21 22 23 24 25 25 21 17 17 16 14 12 11 9 8 7 7 8 8 7 7 7 5 6
28 30 34 29 33 37 35 36 30 25 32 31 25 18 15 20 25 27 27 23 19 19 18 16 14 13 12 8 7 7 7 7 7 7 6 6 5 4
20 22 29 35 35 35 41 37 29 30 32 28 21 18 16 20 28 29 26 22 20 19 18 15 15 14 11 9 8 8 8 6 6 6 6 5 5 4
16 19 22 31 35 36 29 28 33 35 30 28 22 18 15 20 28 26 22 20 20 20 18 17 16 16 11 9 9 9 8 7 7 6 6 6 5 5
10 13 17 31 30 33 33 35 38 35 33 27 23 19 18 25 26 21 20 22 22 20 19 19 18 15 13 11 10 9 7 7 7 7 7 6 6 6
6 9 12 18 33 37 35 37 35 32 30 24 21 18 20 21 23 21 22 23 21 20 20 19 18 15 14 12 11 8 7 6 6 5 6 7 7 8
5 8 15 17 19 26 33 36 35 33 28 25 21 19 19 20 22 21 22 21 18 21 23 21 18 16 15 13 11 9 8 6 5 5 5 5 6 7
10 12 14 15 17 17 23 32 36 33 30 27 23 21 20 22 24 22 21 21 27 29 26 23 19 18 18 15 13 11 9 7 6 6 6 7 8 8
12 13 14 14 14 15 18 20 26 32 32 27 23 23 25 24 26 28 27 30 30 27 24 22 21 22 18 16 15 14 11 10 8 8 8 9 10 10
18 16 13 15 16 15 17 20 21 28 32 31 26 25 24 25 26 27 28 28 26 25 24 23 22 21 20 18 18 16 14 12 11 11 10 11 13 13
26 22 16 14 15 17 18 20 21 24 28 29 30 24 24 24 25 24 25 25 25 24 23 23 23 21 21 20 19 19 15 14 14 14 14 14 15 16
30 24 20 18 18 18 15 17 18 23 27 26 26 32 36 28 26 23 22 26 25 23 26 26 24 23 23 23 21 20 18 17 16 17 17 18 18 19
26 23 21 20 18 15 14 16 20 23 26 29 30 30 30 37 35 25 25 24 26 26 25 25 24 23 25 25 22 21 20 19 20 21 21 21 22 22
26 24 22 20 18 18 18 20 21 23 24 26 28 31 32 32 33 31 32 26 27 26 25 25 25 26 26 25 25 23 23 23 23 23 23 24 24 24
23 22 21 19 17 16 18 20 21 23 26 29 31 33 33 33 31 30 30 28 27 26 25 26 26 27 28 27 27 26 26 26 26 26 27 26 25 26
18 18 17 16 16 17 19 21 21 22 24 28 31 33 32 32 30 30 31 30 27 27 26 26 26 28 28 28 28 28 28 28 29 32 30 29 28 28
16 16 16 16 16 16 18 19 21 23 25 26 27 30 34 36 35 34 34 32 29 29 30 28 30 32 31 29 29 29 28 31 33 32 31 30 28 30
19 18 16 16 16 16 16 17 20 23 24 26 27 28 29 32 36 36 30 29 33 31 28 31 31 31 29 28 33 33 33 32 32 31 32 32 31 32
16 16 16 16 16 16 17 19 20 21 23 25 27 28 28 26 25 28 32 29 29 31 30 27 26 30 33 37 36 31 31 32 33 33 33 33 33 32
15 16 16 17 17 17 19 20 21 22 22 23 25 27 29 30 30 29 29 29 30 33 33 34 34 36 37 36 32 30 31 33 33 35 33 33 34 34
15 17 18 18 18 19 20 21 21 21 22 23 25 28 29 29 30 31 34 34 32 31 31 32 34 36 35 35 34 32 31 30 33 36 36 33 32 32